Home   Weather   Weil am Rhein   Past weeks

Flag for Germany Past Weather in Weil am Rhein, Baden-Württemberg, Germany — Yesterday and Last 2 Weeks

39 °F


Feels Like: 37 °F
Forecast: 36 / 55 °F
Wind: 3 mph from Southeast

Location: Bale-Mulhouse

Current Time: Oct 22, 2016 at 11:03:41 AM

Latest Report: Oct 22, 2016 at 10:00 AM

Visibility: 2 mi

Pressure: 30.04 "Hg

Humidity: 97%

Dew Point: 39 °F

Location of Weil am RheinLocation

Past Weather in Weil am Rhein — Graph


Weil am Rhein Temperature Yesterday

Maximum temperature yesterday: 51 °F (at 1:00 PM)
Minimum temperature yesterday: 43 °F (at 11:00 PM)
Average temperature yesterday: 48 °F

High & Low Weather Summary for the Past Weeks

High66 °F (Oct 16, 3:00 PM)100% (Oct 12, 6:00 AM)30.29 "Hg (Oct 12, 6:00 AM)
Low31 °F (Oct 13, 2:00 AM)53% (Oct 12, 5:00 PM)29.64 "Hg (Oct 14, 6:00 PM)
Average48 °F85%30.08 "Hg
* Reported Oct 7 9:00 AM — Oct 22 9:00 AM, Weil am Rhein, Weather by CustomWeather, © 2016

Note: Actual official high and low records may vary slightly from our data, if they occured in-between our weather recording intervals... More about our weather records


Weil am Rhein Weather History for the Previous 24 Hours

Scroll right to see more
Time TempWeatherWind HumidityBarometerVisibility
9:00 AM
Sat, Oct 22
35 °FFog.5 mph99%30.05 "Hg1 mi
8:00 AM34 °FFog.6 mph99%30.05 "Hg1 mi
7:00 AM32 °FPassing clouds.3 mph95%30.05 "Hg4 mi
6:00 AM34 °FPassing clouds.2 mph97%30.05 "Hg4 mi
5:00 AM35 °FClear.5 mph96%30.04 "Hg4 mi
4:00 AM36 °FChilly.5 mph96%30.05 "Hg4 mi
3:00 AM36 °FChilly.2 mph92%30.06 "Hg5 mi
2:00 AM37 °FOvercast.2 mph94%30.06 "Hg7 mi
1:00 AM38 °FChilly.6 mph91%30.06 "Hg7 mi
12:00 AM40 °FPassing clouds.3 mph92%30.06 "Hg9 mi
11:00 PM
Fri, Oct 21
43 °FPassing clouds.5 mph86%30.06 "Hg9 mi
10:00 PM44 °FPassing clouds.1 mph84%30.06 "Hg9 mi
9:00 PM44 °FPassing clouds.5 mph89%30.06 "Hg9 mi
8:00 PM45 °FPassing clouds.2 mph90%30.05 "Hg16 mi
7:00 PM47 °FPassing clouds.2 mph87%30.05 "Hg16 mi
6:00 PM49 °FOvercast.3 mph78%30.03 "Hg16 mi
5:00 PM49 °FOvercast.2 mph79%30.03 "Hg12 mi
4:00 PM50 °FOvercast.3 mph80%30.02 "Hg16 mi
3:00 PM49 °FOvercast.3 mph87%30.02 "Hg9 mi
2:00 PM49 °FOvercast.2 mph85%30.02 "Hg5 mi
1:00 PM51 °FOvercast.5 mph78%30.02 "Hg12 mi
12:00 PM49 °FOvercast.3 mph84%30.02 "Hg12 mi
11:00 AM48 °FOvercast.3 mph86%30.01 "Hg12 mi
Weather by CustomWeather, © 2016

See weather overviewHow to use our weather pages